This demonstration page uses our WeatherBlox Daily Observations layout. Learn more.

Left ArrowRight Arrow

34.74481, -87.66753

Hourly Observations for December 5, 2020

Temp ( °F °C ) Dew Point ( °F °C ) Humidity (%) Winds ( mph kmh ) Pressure ( in mb ) Visibility ( mi km ) Precip ( " mm )
12:53 am 00:53 Clear 36 2.2 33 0.6 89 89 Calm 30.15 1021 9 14 0.00 0.00
1:53 am 01:53 Clear 34 1.1 31 -0.6 89 89 SW 3 6 30.16 1021 9 14 0.00 0.00
2:53 am 02:53 Clear 33 0.6 30 -1.1 89 89 SW 3 6 30.16 1022 8 13 0.00 0.00
3:53 am 03:53 Clear 33 0.6 30 -1.1 89 89 W 3 6 30.16 1022 9 14 0.00 0.00
4:53 am 04:53 Clear 34 1.1 31 -0.6 89 89 WSW 3 6 30.16 1022 8 13 0.00 0.00
5:38 am 05:38 Clear with Mist and Fog 33 0.6 30 -1.1 89 89 Calm 30.19 1022 2 3 0.00 0.00
5:53 am 05:53 Clear with Mist and Fog 33 0.6 31 -0.6 92 92 Calm 30.17 1022 2 2 0.00 0.00
6:07 am 06:07 Clear with Mist and Fog 33 0.6 30 -1.1 89 89 SW 3 6 30.19 1022 3 5 0.00 0.00
6:53 am 06:53 Sunny with Mist and Fog 33 0.6 30 -1.1 89 89 W 3 6 30.18 1022 6 10 0.00 0.00
7:53 am 07:53 Sunny with Mist and Fog 36 2.2 33 0.6 89 89 SW 3 6 30.19 1022 5 8 0.00 0.00
8:53 am 08:53 Sunny 43 6.1 37 2.8 80 80 WNW 7 11 30.20 1023 10 16 0.00 0.00
9:53 am 09:53 Sunny 47 8.3 37 2.8 69 69 WNW 6 9 30.21 1023 10 16 0.00 0.00
10:53 am 10:53 Sunny 51 10.6 38 3.3 61 61 WNW 5 7 30.19 1022 10 16 0.00 0.00
11:53 am 11:53 Sunny 53 11.7 38 3.3 57 57 Calm 30.16 1021 10 16 0.00 0.00
12:53 pm 12:53 Sunny 57 13.9 34 1.1 42 42 WNW 8 13 30.13 1020 10 16 0.00 0.00
1:53 pm 13:53 Sunny 58 14.4 36 2.2 44 44 undefined N/A 30.10 1019 10 16 0.00 0.00
2:53 pm 14:53 Sunny 58 14.4 37 2.8 46 46 VRB 5 7 30.09 1019 10 16 0.00 0.00
3:53 pm 15:53 Sunny 57 13.9 37 2.8 47 47 Calm 30.08 1019 10 16 0.00 0.00
4:53 pm 16:53 Clear 54 12.2 36 2.2 51 51 SSW 3 6 30.09 1019 10 16 0.00 0.00
5:53 pm 17:53 Clear 50 10 37 2.8 61 61 Calm 30.09 1019 10 16 0.00 0.00
6:53 pm 18:53 Clear 45 7.2 37 2.8 74 74 Calm 30.11 1020 10 16 0.00 0.00
7:53 pm 19:53 Clear 42 5.6 37 2.8 82 82 Calm 30.09 1019 10 16 0.00 0.00
8:53 pm 20:53 Clear 40 4.4 36 2.2 86 86 Calm 30.11 1020 10 16 0.00 0.00
9:53 pm 21:53 Clear 40 4.4 37 2.8 89 89 Calm 30.08 1019 8 13 0.00 0.00
10:53 pm 22:53 Clear 38 3.3 34 1.1 86 86 Calm 30.08 1019 10 16 0.00 0.00
11:53 pm 23:53 Clear 38 3.3 33 0.6 83 83 Calm 30.07 1018 8 13 0.00 0.00

Powered by AerisWeather